N8ESC Weather Reports


time (UTC)temp
C
wind
direction
speed
KPH
gust
KPH
rain 1hr
cm
rain 24hr
cm
rain mn
cm
humidity
%
barometer
mb
20260505093036 5 18 0.0 0.0 0.00 0.00 0.00 61 1001.0
20260505092533 5 263 3.2 4.8 0.00 0.00 0.00 60 1000.9
20260505092031 5 355 1.6 3.2 0.00 0.00 0.00 60 1000.9
20260505091527 5 347 0.0 3.2 0.00 0.00 0.00 60 1000.8
20260505091027 5 294 3.2 4.8 0.00 0.00 0.00 59 1000.8
20260505090524 5 42 4.8 6.4 0.00 0.00 0.00 59 1000.7
20260505090021 5 246 3.2 4.8 0.00 0.00 0.00 59 1000.7
20260505085519 5 270 3.2 4.8 0.00 0.00 0.00 60 1000.5
20260505085017 5 340 3.2 6.4 0.00 0.00 0.00 60 1000.4
20260505084515 5 359 1.6 3.2 0.00 0.00 0.00 60 1000.5
20260505084013 5 314 4.8 9.7 0.00 0.00 0.00 59 1000.4
20260505083509 5 311 3.2 6.4 0.00 0.00 0.00 59 1000.6
20260505083006 5 24 3.2 4.8 0.00 0.00 0.00 59 1000.5
20260505082502 5 353 3.2 6.4 0.00 0.00 0.00 58 1000.2
20260505081959 5 350 1.6 4.8 0.00 0.00 0.00 59 1000.4
20260505081456 5 319 3.2 4.8 0.00 0.00 0.00 58 1000.1
20260505080952 5 273 3.2 4.8 0.00 0.00 0.00 58 1000.3
20260505080448 5 302 3.2 4.8 0.00 0.00 0.00 57 1000.4
20260505075944 5 296 4.8 4.8 0.00 0.00 0.00 57 1000.2
20260505075440 5 344 3.2 4.8 0.00 0.00 0.00 57 1000.3
20260505074938 5 280 3.2 4.8 0.00 0.00 0.00 57 1000.1
20260505074436 5 44 1.6 6.4 0.00 0.00 0.00 57 1000.1
20260505073932 6 318 3.2 6.4 0.00 0.00 0.00 56 1000.1
20260505073430 6 345 4.8 4.8 0.00 0.00 0.00 56 1000.4
20260505072927 6 26 1.6 3.2 0.00 0.00 0.00 56 1000.1
20260505072423 6 346 3.2 3.2 0.00 0.00 0.00 55 1000.2
20260505071920 6 277 3.2 11.3 0.00 0.00 0.00 54 1000.1
20260505071415 6 50 4.8 6.4 0.00 0.00 0.00 54 1000.2
20260505070914 6 324 4.8 6.4 0.00 0.00 0.00 54 1000.0
20260505070410 6 300 4.8 4.8 0.00 0.00 0.00 53 1000.0
20260505065906 7 36 3.2 6.4 0.00 0.00 0.00 53 1000.1
20260505065402 6 321 4.8 9.7 0.00 0.00 0.00 55 1000.0
20260505064859 6 42 0.0 3.2 0.00 0.00 0.00 55 1000.1
20260505064356 6 359 4.8 6.4 0.00 0.00 0.00 54 1000.1
20260505063855 6 307 6.4 9.7 0.00 0.00 0.00 55 1000.1
20260505063355 6 330 3.2 4.8 0.00 0.00 0.00 55 1000.1
20260505062852 6 227 4.8 6.4 0.00 0.00 0.00 55 1000.0
20260505062350 6 340 3.2 11.3 0.00 0.00 0.00 55 1000.1
20260505061846 6 314 3.2 4.8 0.00 0.00 0.00 54 1000.0
20260505061344 6 258 4.8 9.7 0.00 0.00 0.00 54 1000.0
20260505060842 6 338 4.8 6.4 0.00 0.00 0.00 53 999.9
20260505060338 7 303 4.8 4.8 0.00 0.00 0.00 53 999.9
20260505055834 7 301 4.8 9.7 0.00 0.00 0.00 52 999.9
20260505055330 7 322 3.2 4.8 0.00 0.00 0.00 51 999.8
20260505054828 7 282 6.4 11.3 0.00 0.00 0.00 50 999.8
20260505054325 7 3 1.6 1.6 0.00 0.00 0.00 51 999.7
20260505053823 7 10 0.0 6.4 0.00 0.00 0.00 51 999.8
20260505053320 7 294 6.4 6.4 0.00 0.00 0.00 50 999.6
20260505052817 7 303 3.2 9.7 0.00 0.00 0.00 50 999.7
20260505052314 7 20 3.2 4.8 0.00 0.00 0.00 50 999.7
20260505051811 7 39 1.6 6.4 0.00 0.00 0.00 50 999.5
20260505051308 7 286 4.8 9.7 0.00 0.00 0.00 49 999.5
20260505050806 8 330 6.4 9.7 0.00 0.00 0.00 48 999.4
20260505050305 8 6 3.2 9.7 0.00 0.00 0.00 48 999.6
20260505041734 8 321 3.2 9.7 0.00 0.00 0.00 46 998.4
20260505041231 8 300 4.8 11.3 0.00 0.00 0.00 46 998.4
20260505040729 8 324 6.4 9.7 0.00 0.00 0.00 45 998.1
20260505040226 9 292 11.3 17.7 0.00 0.00 0.00 45 998.2
20260505035723 9 49 9.7 16.1 0.00 0.03 0.03 44 998.2
20260505035219 9 316 4.8 14.5 0.00 0.03 0.03 45 998.0
20260505034715 9 300 8.0 11.3 0.00 0.03 0.03 45 998.0
20260505034213 10 321 3.2 4.8 0.00 0.03 0.03 45 997.9
20260505033708 10 273 3.2 6.4 0.00 0.03 0.03 45 997.8
20260505033207 10 246 11.3 14.5 0.00 0.03 0.03 44 997.9
20260505032705 10 253 8.0 17.7 0.00 0.03 0.03 43 997.7
20260505032200 10 302 17.7 20.9 0.00 0.03 0.03 42 997.7
20260505031658 10 278 14.5 20.9 0.00 0.03 0.03 43 997.7
20260505031154 10 287 20.9 24.1 0.00 0.03 0.03 42 997.4
20260505030651 10 306 6.4 22.5 0.00 0.03 0.03 42 997.3
20260505030147 10 265 14.5 22.5 0.00 0.03 0.03 42 997.1
20260505025643 10 309 14.5 22.5 0.00 0.03 0.03 42 997.1
20260505025142 11 337 14.5 29.0 0.00 0.03 0.03 42 997.0
20260505024639 11 285 14.5 20.9 0.00 0.03 0.03 42 997.0
20260505024136 11 254 8.0 24.1 0.00 0.03 0.03 44 997.1
20260505023633 11 290 9.7 20.9 0.00 0.03 0.03 44 996.7
20260505023131 11 346 9.7 11.3 0.00 0.03 0.03 45 996.5
20260505022628 11 5 4.8 12.9 0.00 0.03 0.03 45 996.4
20260505022125 11 286 9.7 16.1 0.00 0.03 0.03 45 996.4
20260505021621 11 288 14.5 20.9 0.00 0.03 0.03 45 996.4
20260505021118 11 291 12.9 16.1 0.00 0.03 0.03 48 996.4
20260505020614 11 287 14.5 20.9 0.00 0.03 0.03 53 996.2
20260505020110 11 337 1.6 6.4 0.00 0.03 0.03 58 996.0
20260505015607 11 42 3.2 4.8 0.00 0.03 0.03 61 996.0
20260505015104 11 17 1.6 1.6 0.00 0.03 0.03 62 995.8
20260505014601 11 28 0.0 1.6 0.00 0.03 0.03 61 995.6
20260505014058 11 359 3.2 6.4 0.00 0.03 0.03 62 995.6
20260505013555 10 338 3.2 3.2 0.00 0.03 0.03 64 995.3
20260505013052 10 333 1.6 3.2 0.00 0.03 0.03 66 995.2
20260505012550 10 38 1.6 1.6 0.00 0.03 0.03 67 995.1
20260505012047 10 48 6.4 6.4 0.00 0.03 0.03 66 994.8
20260505011543 10 51 1.6 4.8 0.00 0.03 0.03 68 994.8
20260505011040 10 63 3.2 4.8 0.00 0.03 0.03 69 994.6
20260505010535 10 43 3.2 4.8 0.00 0.03 0.03 69 994.4
20260505010032 10 50 3.2 6.4 0.00 0.03 0.03 68 994.2
20260505005528 10 46 3.2 3.2 0.00 0.03 0.03 69 994.2
20260505005026 10 41 6.4 11.3 0.00 0.03 0.03 68 994.3
20260505004523 11 35 6.4 9.7 0.00 0.03 0.03 66 994.0
20260505004020 11 4 4.8 11.3 0.00 0.03 0.03 65 994.1
20260505003517 11 47 6.4 11.3 0.00 0.03 0.03 60 993.9
20260505003014 11 66 11.3 14.5 0.00 0.03 0.03 60 993.9
20260505002509 11 33 9.7 14.5 0.00 0.03 0.03 64 993.8
20260505002008 12 14 9.7 12.9 0.00 0.03 0.03 61 993.6
20260505001505 12 44 11.3 14.5 0.00 0.03 0.03 60 993.5
20260505001002 12 46 4.8 11.3 0.00 0.03 0.03 60 993.6
20260505000500 12 59 11.3 16.1 0.00 0.03 0.03 61 993.4
20260504235956 12 63 11.3 17.7 0.00 0.03 0.03 59 993.3
20260504235454 12 57 8.0 16.1 0.00 0.03 0.03 60 993.1
20260504234950 12 54 9.7 16.1 0.00 0.03 0.03 64 993.1
20260504234447 13 38 6.4 12.9 0.00 0.03 0.03 63 992.9
20260504233944 13 43 4.8 6.4 0.00 0.03 0.03 64 992.7
20260504233439 13 51 4.8 9.7 0.00 0.03 0.03 65 992.9
20260504232937 13 9 3.2 4.8 0.00 0.03 0.03 65 992.8
20260504232434 13 47 4.8 11.3 0.00 0.03 0.03 64 992.5
20260504231931 15 50 9.7 11.3 0.00 0.03 0.03 60 992.7
20260504231427 15 69 0.0 1.6 0.00 0.03 0.03 59 992.7
20260504230923 15 49 3.2 4.8 0.00 0.03 0.03 59 992.5
20260504230420 16 42 1.6 6.4 0.00 0.03 0.03 57 992.4
20260504225920 16 344 1.6 3.2 0.00 0.03 0.03 55 992.5
20260504225416 15 59 0.0 3.2 0.00 0.03 0.03 58 992.5
20260504224914 15 49 3.2 11.3 0.00 0.03 0.03 58 992.3
20260504224410 15 39 1.6 3.2 0.00 0.03 0.03 58 992.4
20260504223907 14 52 0.0 3.2 0.00 0.03 0.03 60 992.4
20260504223402 13 47 1.6 4.8 0.00 0.03 0.03 62 992.3
20260504222858 13 47 3.2 4.8 0.00 0.03 0.03 63 992.3
20260504222355 13 49 1.6 4.8 0.00 0.03 0.03 63 992.2
20260504221854 13 58 3.2 4.8 0.00 0.03 0.03 63 991.9
20260504221350 13 38 3.2 9.7 0.00 0.03 0.03 63 991.8
20260504220847 13 43 6.4 11.3 0.00 0.03 0.03 63 991.8
20260504220344 14 55 6.4 11.3 0.00 0.03 0.03 61 991.4
20260504215842 15 33 3.2 6.4 0.00 0.03 0.03 59 991.8
20260504215337 15 72 4.8 6.4 0.00 0.03 0.03 58 991.3
20260504214834 15 42 3.2 6.4 0.00 0.03 0.03 59 990.8
20260504214331 15 56 3.2 6.4 0.00 0.03 0.03 58 991.2
20260504213827 15 51 6.4 12.9 0.00 0.03 0.03 57 991.1
20260504213323 15 48 6.4 9.7 0.00 0.03 0.03 58 991.4
20260504212821 15 32 1.6 6.4 0.00 0.03 0.03 57 991.1
20260504212317 15 57 4.8 9.7 0.00 0.03 0.03 57 991.2
20260504211815 15 43 6.4 12.9 0.00 0.03 0.03 58 991.0
20260504211310 15 45 8.0 11.3 0.00 0.03 0.03 57 991.0
20260504210808 15 66 6.4 11.3 0.00 0.03 0.03 58 990.8
20260504210306 15 35 11.3 16.1 0.00 0.03 0.03 58 990.7
20260504205802 15 54 8.0 12.9 0.00 0.03 0.03 59 990.6
20260504205300 15 41 8.0 14.5 0.00 0.03 0.03 59 990.6
20260504204758 15 86 8.0 14.5 0.00 0.03 0.03 58 990.5
20260504204256 15 34 9.7 12.9 0.00 0.03 0.03 58 990.5
20260504203755 15 41 6.4 11.3 0.00 0.03 0.03 57 990.4
20260504203252 16 31 8.0 9.7 0.00 0.03 0.03 56 990.5
20260504202747 17 50 9.7 14.5 0.00 0.03 0.03 53 990.3
20260504202245 17 59 11.3 14.5 0.00 0.03 0.03 51 989.8
20260504201741 17 35 9.7 16.1 0.00 0.03 0.03 49 990.0
20260504201238 17 45 14.5 22.5 0.00 0.03 0.03 48 990.1
20260504200737 18 22 17.7 17.7 0.00 0.03 0.03 45 990.1
20260504200232 18 51 4.8 12.9 0.00 0.03 0.03 45 989.8
20260504195729 18 45 1.6 6.4 0.00 0.03 0.03 44 989.9
20260504195225 18 38 3.2 9.7 0.00 0.03 0.03 46 989.9
20260504194722 18 54 9.7 11.3 0.00 0.03 0.03 45 989.8
20260504194218 18 51 3.2 6.4 0.00 0.03 0.03 45 989.7
20260504193714 19 39 6.4 12.9 0.00 0.03 0.03 45 989.6
20260504193212 22 48 6.4 12.9 0.00 0.03 0.03 38 989.6
20260504192710 22 238 1.6 11.3 0.00 0.03 0.03 32 989.6
20260504192208 19 232 4.8 11.3 0.00 0.03 0.03 36 989.7
20260504191706 18 46 4.8 6.4 0.00 0.03 0.03 43 989.7
20260504191203 18 57 6.4 6.4 0.00 0.03 0.03 43 989.6
20260504190658 18 209 3.2 6.4 0.00 0.03 0.03 45 989.7
20260504190155 19 24 3.2 6.4 0.00 0.03 0.03 43 989.5
20260504185651 18 98 0.0 6.4 0.00 0.03 0.03 43 989.6
20260504185148 22 29 9.7 14.5 0.00 0.03 0.03 39 989.4
20260504184644 22 286 8.0 14.5 0.00 0.03 0.03 33 989.4
20260504184139 22 358 1.6 12.9 0.00 0.03 0.03 33 989.5
20260504183636 22 315 9.7 14.5 0.00 0.03 0.03 33 989.4
20260504183134 22 344 6.4 17.7 0.00 0.03 0.03 33 989.5
20260504182631 21 259 9.7 14.5 0.00 0.03 0.03 34 989.5
20260504182129 21 250 6.4 11.3 0.00 0.03 0.03 35 989.5
20260504181626 21 93 4.8 11.3 0.00 0.03 0.03 34 989.3
20260504181123 21 285 9.7 16.1 0.00 0.03 0.03 34 989.2
20260504180622 22 332 9.7 25.7 0.00 0.03 0.03 33 989.3
20260504180121 22 264 9.7 17.7 0.00 0.03 0.03 34 989.2
20260504175618 22 242 14.5 25.7 0.00 0.03 0.03 32 989.2
20260504175114 22 292 8.0 14.5 0.00 0.03 0.03 33 989.4
20260504174613 22 263 22.5 27.4 0.00 0.03 0.03 32 989.2
20260504174109 22 271 11.3 25.7 0.00 0.03 0.03 33 989.3
20260504173606 22 274 17.7 24.1 0.00 0.03 0.03 33 989.2
20260504173104 18 262 17.7 25.7 0.00 0.03 0.03 37 989.3
20260504172559 18 99 3.2 4.8 0.00 0.03 0.03 48 989.2
20260504172056 17 217 6.4 11.3 0.00 0.03 0.03 47 989.3
20260504171553 16 151 8.0 12.9 0.00 0.03 0.03 52 989.5
20260504171050 16 184 8.0 11.3 0.00 0.03 0.03 53 989.5
20260504170545 16 126 4.8 6.4 0.00 0.03 0.03 52 989.5
20260504150930 13 154 11.3 20.9 0.00 0.03 0.03 61 990.4
20260504150426 12 91 6.4 20.9 0.00 0.03 0.03 62 990.0
20260504140853 12 203 6.4 29.0 0.00 0.03 0.03 64 991.5
20260504140349 11 290 11.3 12.9 0.18 0.03 0.03 65 991.6
20260504130817 10 216 8.0 12.9 0.00 0.00 0.00 78 993.1
20260504130314 10 141 4.8 4.8 0.00 0.00 0.00 78 993.3
20260504110259 7 171 3.2 6.4 0.00 0.00 0.00 86 995.1
20260504100222 6 177 4.8 9.7 0.00 0.00 0.00 87 996.0